Time,TemperatureF,DewpointF,PressureIn,WindDirection,WindDirectionDegrees,WindSpeedMPH,WindSpeedGustMPH,Humidity,HourlyPrecipIn,Conditions,Clouds,dailyrainin,SoftwareType,DateUTC
2013-01-02 00:00:00,38.6,26.3,30.08,NNW,340,0.0,3.0,61,0.00,,,0.00,Wunderground v.1.15,2013-01-02 08:00:00,
2013-01-02 00:10:00,38.5,28.5,30.08,NNW,340,3.0,3.0,67,0.00,,,0.00,Wunderground v.1.15,2013-01-02 08:10:00,
2013-01-02 00:15:00,37.9,27.2,30.08,NNW,340,2.0,5.0,65,0.00,,,0.00,Wunderground v.1.15,2013-01-02 08:15:00,
2013-01-02 00:25:00,37.9,24.4,30.08,NNW,340,1.0,5.0,58,0.00,,,0.00,Wunderground v.1.15,2013-01-02 08:25:00,
2013-01-02 00:30:00,38.8,24.4,30.08,NNW,340,1.0,1.0,56,0.00,,,0.00,Wunderground v.1.15,2013-01-02 08:30:00,
2013-01-02 00:40:00,39.5,23.8,30.08,NNW,340,1.0,5.0,53,0.00,,,0.00,Wunderground v.1.15,2013-01-02 08:40:00,
2013-01-02 00:45:00,39.5,25.1,30.08,NNW,340,1.0,5.0,56,0.00,,,0.00,Wunderground v.1.15,2013-01-02 08:45:00,
2013-01-02 00:55:00,38.6,25.9,30.09,NNW,340,2.0,3.0,60,0.00,,,0.00,Wunderground v.1.15,2013-01-02 08:55:00,
2013-01-02 01:00:00,38.6,26.7,30.09,NNW,340,2.0,3.0,62,0.00,,,0.00,Wunderground v.1.15,2013-01-02 09:00:00,
2013-01-02 01:10:00,38.3,26.8,30.08,NNW,340,2.0,3.0,63,0.00,,,0.00,Wunderground v.1.15,2013-01-02 09:10:00,
2013-01-02 01:20:00,38.5,27.7,30.08,NNW,333,2.0,5.0,65,0.00,,,0.00,Wunderground v.1.15,2013-01-02 09:20:00,
2013-01-02 01:30:00,38.5,27.0,30.08,NNW,333,1.0,5.0,63,0.00,,,0.00,Wunderground v.1.15,2013-01-02 09:30:00,
2013-01-02 01:40:00,38.3,28.3,30.08,NNW,333,2.0,2.0,67,0.00,,,0.00,Wunderground v.1.15,2013-01-02 09:40:00,
2013-01-02 01:45:00,38.5,26.2,30.08,NNW,333,1.0,5.0,61,0.00,,,0.00,Wunderground v.1.15,2013-01-02 09:45:00,
2013-01-02 01:55:00,38.2,28.6,30.08,NNW,333,1.0,5.0,68,0.00,,,0.00,Wunderground v.1.15,2013-01-02 09:55:00,
2013-01-02 02:05:00,37.6,28.3,30.08,NNW,333,2.0,5.0,69,0.00,,,0.00,Wunderground v.1.15,2013-01-02 10:05:00,
2013-01-02 02:15:00,38.6,25.5,30.08,NNW,333,1.0,5.0,59,0.00,,,0.00,Wunderground v.1.15,2013-01-02 10:15:00,
2013-01-02 02:25:00,40.5,25.6,30.08,NNW,333,0.0,5.0,55,0.00,,,0.00,Wunderground v.1.15,2013-01-02 10:25:00,
2013-01-02 02:35:00,41.2,25.3,30.08,NNW,333,0.0,5.0,53,0.00,,,0.00,Wunderground v.1.15,2013-01-02 10:35:00,
2013-01-02 02:45:00,41.3,24.5,30.07,NNW,333,0.0,5.0,51,0.00,,,0.00,Wunderground v.1.15,2013-01-02 10:45:00,
2013-01-02 02:50:00,41.2,25.3,30.07,NNW,333,0.0,2.0,53,0.00,,,0.00,Wunderground v.1.15,2013-01-02 10:50:00,
2013-01-02 03:00:00,41.1,26.1,30.07,NNW,333,0.0,2.0,55,0.00,,,0.00,Wunderground v.1.15,2013-01-02 11:00:00,
2013-01-02 03:10:00,40.9,24.6,30.07,NNW,333,0.0,2.0,52,0.00,,,0.00,Wunderground v.1.15,2013-01-02 11:10:00,
2013-01-02 03:15:00,41.1,24.3,30.07,NNW,333,0.0,2.0,51,0.00,,,0.00,Wunderground v.1.15,2013-01-02 11:15:00,
2013-01-02 03:25:00,40.8,25.0,30.07,NNW,333,1.0,2.0,53,0.00,,,0.00,Wunderground v.1.15,2013-01-02 11:25:00,
2013-01-02 03:35:00,41.1,24.8,30.07,NNW,333,0.0,2.0,52,0.00,,,0.00,Wunderground v.1.15,2013-01-02 11:35:00,
2013-01-02 03:40:00,41.2,23.9,30.07,NNW,333,0.0,2.0,50,0.00,,,0.00,Wunderground v.1.15,2013-01-02 11:40:00,
2013-01-02 03:50:00,41.9,24.1,30.07,NNW,333,0.0,2.0,49,0.00,,,0.00,Wunderground v.1.15,2013-01-02 11:50:00,
2013-01-02 03:55:00,41.9,23.1,30.07,NNW,333,0.0,2.0,47,0.00,,,0.00,Wunderground v.1.15,2013-01-02 11:55:00,
2013-01-02 04:05:00,41.5,24.2,30.07,NNW,333,0.0,2.0,50,0.00,,,0.00,Wunderground v.1.15,2013-01-02 12:05:00,
2013-01-02 04:15:00,41.8,24.0,30.06,NNW,333,0.0,3.0,49,0.00,,,0.00,Wunderground v.1.15,2013-01-02 12:15:00,
2013-01-02 04:20:00,41.6,23.3,30.06,NNW,333,0.0,3.0,48,0.00,,,0.00,Wunderground v.1.15,2013-01-02 12:20:00,
2013-01-02 04:30:00,41.3,23.6,30.05,NNW,333,0.0,3.0,49,0.00,,,0.00,Wunderground v.1.15,2013-01-02 12:30:00,
2013-01-02 04:35:00,41.3,24.0,30.05,NNW,333,0.0,3.0,50,0.00,,,0.00,Wunderground v.1.15,2013-01-02 12:35:00,
2013-01-02 04:45:00,41.5,21.7,30.05,North,4,0.0,3.0,45,0.00,,,0.00,Wunderground v.1.15,2013-01-02 12:45:00,
2013-01-02 04:55:00,42.1,23.8,30.05,North,4,0.0,2.0,48,0.00,,,0.00,Wunderground v.1.15,2013-01-02 12:55:00,
2013-01-02 05:00:00,42.2,23.9,30.05,North,4,0.0,2.0,48,0.00,,,0.00,Wunderground v.1.15,2013-01-02 13:00:00,
2013-01-02 05:10:00,41.6,23.3,30.05,North,4,0.0,2.0,48,0.00,,,0.00,Wunderground v.1.15,2013-01-02 13:10:00,
2013-01-02 05:20:00,41.5,23.2,30.05,North,4,1.0,1.0,48,0.00,,,0.00,Wunderground v.1.15,2013-01-02 13:20:00,
2013-01-02 05:25:00,41.2,23.9,30.05,North,4,0.0,2.0,50,0.00,,,0.00,Wunderground v.1.15,2013-01-02 13:25:00,
2013-01-02 05:35:00,41.1,23.4,30.05,North,4,0.0,2.0,49,0.00,,,0.00,Wunderground v.1.15,2013-01-02 13:35:00,
2013-01-02 05:40:00,41.1,22.4,30.05,North,4,0.0,2.0,47,0.00,,,0.00,Wunderground v.1.15,2013-01-02 13:40:00,
2013-01-02 05:50:00,41.1,22.9,30.05,North,4,1.0,2.0,48,0.00,,,0.00,Wunderground v.1.15,2013-01-02 13:50:00,
2013-01-02 06:00:00,40.6,23.9,30.05,North,4,1.0,2.0,51,0.00,,,0.00,Wunderground v.1.15,2013-01-02 14:00:00,
2013-01-02 06:05:00,39.9,25.0,30.05,North,4,1.0,2.0,55,0.00,,,0.00,Wunderground v.1.15,2013-01-02 14:05:00,
2013-01-02 06:15:00,39.2,24.8,30.06,North,4,1.0,3.0,56,0.00,,,0.00,Wunderground v.1.15,2013-01-02 14:15:00,
2013-01-02 06:20:00,39.2,23.9,30.06,North,4,1.0,3.0,54,0.00,,,0.00,Wunderground v.1.15,2013-01-02 14:20:00,
2013-01-02 06:30:00,38.8,26.5,30.06,North,4,2.0,2.0,61,0.00,,,0.00,Wunderground v.1.15,2013-01-02 14:30:00,
2013-01-02 06:40:00,38.3,26.8,30.06,NW,322,4.0,4.0,63,0.00,,,0.00,Wunderground v.1.15,2013-01-02 14:40:00,
2013-01-02 06:45:00,37.9,25.6,30.06,NW,322,3.0,7.0,61,0.00,,,0.00,Wunderground v.1.15,2013-01-02 14:45:00,
2013-01-02 06:55:00,38.0,24.5,30.06,NW,322,2.0,7.0,58,0.00,,,0.00,Wunderground v.1.15,2013-01-02 14:55:00,
2013-01-02 07:05:00,37.8,25.9,30.06,NW,322,2.0,7.0,62,0.00,,,0.00,Wunderground v.1.15,2013-01-02 15:05:00,
2013-01-02 07:10:00,37.6,25.4,30.06,NW,322,2.0,7.0,61,0.00,,,0.00,Wunderground v.1.15,2013-01-02 15:10:00,
2013-01-02 07:20:00,37.9,25.6,30.06,NW,322,2.0,2.0,61,0.00,,,0.00,Wunderground v.1.15,2013-01-02 15:20:00,
2013-01-02 07:30:00,38.0,26.5,30.07,NW,322,2.0,3.0,63,0.00,,,0.00,Wunderground v.1.15,2013-01-02 15:30:00,
2013-01-02 07:35:00,38.3,26.0,30.07,NW,322,2.0,3.0,61,0.00,,,0.00,Wunderground v.1.15,2013-01-02 15:35:00,
2013-01-02 07:45:00,38.9,26.2,30.07,NW,322,3.0,5.0,60,0.00,,,0.00,Wunderground v.1.15,2013-01-02 15:45:00,
2013-01-02 07:55:00,40.3,26.3,30.07,NW,322,3.0,5.0,57,0.00,,,0.00,Wunderground v.1.15,2013-01-02 15:55:00,
2013-01-02 08:05:00,42.2,26.7,30.07,NW,322,2.0,5.0,54,0.00,,,0.00,Wunderground v.1.15,2013-01-02 16:05:00,
2013-01-02 08:10:00,43.2,25.8,30.07,NW,322,2.0,5.0,50,0.00,,,0.00,Wunderground v.1.15,2013-01-02 16:10:00,
2013-01-02 08:20:00,44.6,25.1,30.07,NW,322,2.0,2.0,46,0.00,,,0.00,Wunderground v.1.15,2013-01-02 16:20:00,
2013-01-02 08:25:00,45.5,27.4,30.07,NW,322,2.0,6.0,49,0.00,,,0.00,Wunderground v.1.15,2013-01-02 16:25:00,
2013-01-02 08:35:00,46.5,29.3,30.07,NW,322,0.0,6.0,51,0.00,,,0.00,Wunderground v.1.15,2013-01-02 16:35:00,
2013-01-02 08:40:00,47.0,27.8,30.07,NW,322,0.0,6.0,47,0.00,,,0.00,Wunderground v.1.15,2013-01-02 16:40:00,
2013-01-02 08:50:00,46.5,29.8,30.07,NW,322,1.0,5.0,52,0.00,,,0.00,Wunderground v.1.15,2013-01-02 16:50:00,
2013-01-02 09:00:00,48.5,29.7,30.07,NW,322,0.0,5.0,48,0.00,,,0.00,Wunderground v.1.15,2013-01-02 17:00:00,
2013-01-02 09:10:00,49.1,28.1,30.07,NW,322,1.0,5.0,44,0.00,,,0.00,Wunderground v.1.15,2013-01-02 17:10:00,
2013-01-02 09:20:00,50.7,29.6,30.07,NW,322,0.0,5.0,44,0.00,,,0.00,Wunderground v.1.15,2013-01-02 17:20:00,
2013-01-02 09:25:00,52.3,31.0,30.07,NW,322,0.0,5.0,44,0.00,,,0.00,Wunderground v.1.15,2013-01-02 17:25:00,
2013-01-02 09:35:00,54.8,31.5,30.07,NW,322,1.0,5.0,41,0.00,,,0.00,Wunderground v.1.15,2013-01-02 17:35:00,
2013-01-02 09:45:00,55.3,30.1,30.07,NW,322,1.0,3.0,38,0.00,,,0.00,Wunderground v.1.15,2013-01-02 17:45:00,
2013-01-02 09:50:00,53.8,28.8,30.07,NW,322,2.0,2.0,38,0.00,,,0.00,Wunderground v.1.15,2013-01-02 17:50:00,
2013-01-02 10:00:00,54.2,27.1,30.08,NW,322,1.0,1.0,35,0.00,,,0.00,Wunderground v.1.15,2013-01-02 18:00:00,
2013-01-02 10:10:00,56.2,30.9,30.08,NW,322,0.0,2.0,38,0.00,,,0.00,Wunderground v.1.15,2013-01-02 18:10:00,
2013-01-02 10:15:00,56.2,28.2,30.08,NW,322,1.0,5.0,34,0.00,,,0.00,Wunderground v.1.15,2013-01-02 18:15:00,
2013-01-02 10:25:00,56.7,26.4,30.08,NW,322,0.0,5.0,31,0.00,,,0.00,Wunderground v.1.15,2013-01-02 18:25:00,
2013-01-02 10:35:00,56.0,28.7,30.08,NW,322,2.0,5.0,35,0.00,,,0.00,Wunderground v.1.15,2013-01-02 18:35:00,
2013-01-02 10:40:00,55.4,28.2,30.08,NW,322,2.0,5.0,35,0.00,,,0.00,Wunderground v.1.15,2013-01-02 18:40:00,
2013-01-02 10:50:00,55.4,28.9,30.08,NW,322,1.0,3.0,36,0.00,,,0.00,Wunderground v.1.15,2013-01-02 18:50:00,
2013-01-02 10:55:00,55.4,28.9,30.08,NW,322,1.0,3.0,36,0.00,,,0.00,Wunderground v.1.15,2013-01-02 18:55:00,
2013-01-02 11:05:00,55.6,26.2,30.08,NNW,332,2.0,3.0,32,0.00,,,0.00,Wunderground v.1.15,2013-01-02 19:05:00,
2013-01-02 11:10:00,55.4,27.5,30.08,NNW,332,2.0,3.0,34,0.00,,,0.00,Wunderground v.1.15,2013-01-02 19:10:00,
2013-01-02 11:20:00,55.1,25.7,30.08,NNW,332,2.0,5.0,32,0.00,,,0.00,Wunderground v.1.15,2013-01-02 19:20:00,
2013-01-02 11:30:00,55.0,25.6,30.07,NNW,332,2.0,5.0,32,0.00,,,0.00,Wunderground v.1.15,2013-01-02 19:30:00,
2013-01-02 11:40:00,55.3,27.4,30.06,NW,313,2.0,5.0,34,0.00,,,0.00,Wunderground v.1.15,2013-01-02 19:40:00,
2013-01-02 11:45:00,55.7,26.3,30.06,NW,315,2.0,5.0,32,0.00,,,0.00,Wunderground v.1.15,2013-01-02 19:45:00,
2013-01-02 11:55:00,56.7,29.3,30.05,NW,316,2.0,5.0,35,0.00,,,0.00,Wunderground v.1.15,2013-01-02 19:55:00,
2013-01-02 12:00:00,57.2,30.5,30.05,NW,316,2.0,5.0,36,0.00,,,0.00,Wunderground v.1.15,2013-01-02 20:00:00,
2013-01-02 12:10:00,57.8,28.1,30.04,NW,316,2.0,5.0,32,0.00,,,0.00,Wunderground v.1.15,2013-01-02 20:10:00,
2013-01-02 12:20:00,58.4,27.1,30.04,NW,318,2.0,5.0,30,0.00,,,0.00,Wunderground v.1.15,2013-01-02 20:20:00,
2013-01-02 12:25:00,58.7,29.6,30.03,NW,318,2.0,5.0,33,0.00,,,0.00,Wunderground v.1.15,2013-01-02 20:25:00,
2013-01-02 12:35:00,59.2,26.1,30.03,NW,316,2.0,5.0,28,0.00,,,0.00,Wunderground v.1.15,2013-01-02 20:35:00,
2013-01-02 12:40:00,59.6,28.1,30.02,NW,316,2.0,5.0,30,0.00,,,0.00,Wunderground v.1.15,2013-01-02 20:40:00,
2013-01-02 12:50:00,59.9,27.5,30.02,NW,318,2.0,5.0,29,0.00,,,0.00,Wunderground v.1.15,2013-01-02 20:50:00,
2013-01-02 13:00:00,60.4,26.2,30.02,NW,318,1.0,5.0,27,0.00,,,0.00,Wunderground v.1.15,2013-01-02 21:00:00,
2013-01-02 13:05:00,60.7,27.4,30.02,NW,318,1.0,5.0,28,0.00,,,0.00,Wunderground v.1.15,2013-01-02 21:05:00,
2013-01-02 13:15:00,60.9,30.0,30.01,NW,318,2.0,5.0,31,0.00,,,0.00,Wunderground v.1.15,2013-01-02 21:15:00,
2013-01-02 13:25:00,61.3,30.4,30.02,North,350,1.0,5.0,31,0.00,,,0.00,Wunderground v.1.15,2013-01-02 21:25:00,
2013-01-02 13:30:00,61.3,27.9,30.02,North,350,1.0,5.0,28,0.00,,,0.00,Wunderground v.1.15,2013-01-02 21:30:00,
2013-01-02 13:40:00,61.2,32.6,30.02,North,353,2.0,2.0,34,0.00,,,0.00,Wunderground v.1.15,2013-01-02 21:40:00,
2013-01-02 13:50:00,61.0,33.1,30.02,North,353,2.0,2.0,35,0.00,,,0.00,Wunderground v.1.15,2013-01-02 21:50:00,
2013-01-02 13:55:00,61.2,33.3,30.01,North,353,1.0,5.0,35,0.00,,,0.00,Wunderground v.1.15,2013-01-02 21:55:00,
2013-01-02 14:05:00,60.9,35.1,30.01,North,353,2.0,5.0,38,0.00,,,0.00,Wunderground v.1.15,2013-01-02 22:05:00,
2013-01-02 14:10:00,59.9,34.2,30.00,North,352,1.0,5.0,38,0.00,,,0.00,Wunderground v.1.15,2013-01-02 22:10:00,
2013-01-02 14:20:00,58.6,33.7,30.00,North,353,2.0,5.0,39,0.00,,,0.00,Wunderground v.1.15,2013-01-02 22:20:00,
2013-01-02 14:30:00,57.0,34.1,30.00,NW,320,2.0,2.0,42,0.00,,,0.00,Wunderground v.1.15,2013-01-02 22:30:00,
2013-01-02 14:40:00,56.5,33.7,30.00,NW,320,2.0,5.0,42,0.00,,,0.00,Wunderground v.1.15,2013-01-02 22:40:00,
2013-01-02 14:45:00,56.3,34.6,30.00,NW,322,2.0,5.0,44,0.00,,,0.00,Wunderground v.1.15,2013-01-02 22:45:00,
2013-01-02 14:55:00,55.7,34.7,30.00,NNW,342,3.0,6.0,45,0.00,,,0.00,Wunderground v.1.15,2013-01-02 22:55:00,
2013-01-02 15:00:00,55.4,35.5,30.00,NW,319,3.0,3.0,47,0.00,,,0.00,Wunderground v.1.15,2013-01-02 23:00:00,
2013-01-02 15:10:00,55.0,35.1,30.00,NW,316,2.0,2.0,47,0.00,,,0.00,Wunderground v.1.15,2013-01-02 23:10:00,
2013-01-02 15:15:00,54.5,34.1,30.00,WNW,289,2.0,7.0,46,0.00,,,0.00,Wunderground v.1.15,2013-01-02 23:15:00,
2013-01-02 15:25:00,53.9,35.2,30.00,WNW,291,2.0,7.0,49,0.00,,,0.00,Wunderground v.1.15,2013-01-02 23:25:00,
2013-01-02 15:30:00,53.6,34.4,30.00,WNW,291,2.0,7.0,48,0.00,,,0.00,Wunderground v.1.15,2013-01-02 23:30:00,
2013-01-02 15:40:00,53.2,34.5,30.00,WNW,291,2.0,7.0,49,0.00,,,0.00,Wunderground v.1.15,2013-01-02 23:40:00,
2013-01-02 15:45:00,52.9,35.2,30.00,WNW,291,2.0,7.0,51,0.00,,,0.00,Wunderground v.1.15,2013-01-02 23:45:00,
2013-01-02 15:55:00,52.5,35.4,30.00,WNW,291,2.0,7.0,52,0.00,,,0.00,Wunderground v.1.15,2013-01-02 23:55:00,
2013-01-02 16:05:00,51.6,35.9,30.00,WNW,291,2.0,7.0,55,0.00,,,0.00,Wunderground v.1.15,2013-01-03 00:05:00,
2013-01-02 16:10:00,51.1,35.9,29.99,WNW,291,2.0,7.0,56,0.00,,,0.00,Wunderground v.1.15,2013-01-03 00:10:00,
2013-01-02 16:20:00,50.1,35.4,29.99,WNW,291,1.0,5.0,57,0.00,,,0.00,Wunderground v.1.15,2013-01-03 00:20:00,
2013-01-02 16:25:00,49.9,36.1,29.99,WNW,291,1.0,5.0,59,0.00,,,0.00,Wunderground v.1.15,2013-01-03 00:25:00,
2013-01-02 16:40:00,48.8,36.4,29.99,WNW,291,1.0,5.0,62,0.00,,,0.00,Wunderground v.1.15,2013-01-03 00:40:00,
2013-01-02 16:50:00,47.7,36.1,29.99,WNW,291,1.0,3.0,64,0.00,,,0.00,Wunderground v.1.15,2013-01-03 00:50:00,
2013-01-02 17:00:00,46.8,35.6,29.99,WNW,291,2.0,3.0,65,0.00,,,0.00,Wunderground v.1.15,2013-01-03 01:00:00,
2013-01-02 17:05:00,46.4,35.3,29.99,WNW,291,2.0,3.0,65,0.00,,,0.00,Wunderground v.1.15,2013-01-03 01:05:00,
2013-01-02 17:15:00,46.7,35.2,30.00,WNW,291,1.0,3.0,64,0.00,,,0.00,Wunderground v.1.15,2013-01-03 01:15:00,
2013-01-02 17:20:00,46.5,35.4,30.00,WNW,291,0.0,3.0,65,0.00,,,0.00,Wunderground v.1.15,2013-01-03 01:20:00,
2013-01-02 17:30:00,45.8,34.7,30.00,WNW,291,1.0,3.0,65,0.00,,,0.00,Wunderground v.1.15,2013-01-03 01:30:00,
2013-01-02 17:35:00,45.5,34.8,30.00,WNW,291,2.0,3.0,66,0.00,,,0.00,Wunderground v.1.15,2013-01-03 01:35:00,
2013-01-02 17:45:00,45.1,34.0,30.01,WNW,291,1.0,2.0,65,0.00,,,0.00,Wunderground v.1.15,2013-01-03 01:45:00,
2013-01-02 17:50:00,45.1,34.4,30.01,WNW,291,1.0,3.0,66,0.00,,,0.00,Wunderground v.1.15,2013-01-03 01:50:00,
2013-01-02 18:00:00,45.2,33.7,30.01,WNW,291,2.0,3.0,64,0.00,,,0.00,Wunderground v.1.15,2013-01-03 02:00:00,
2013-01-02 18:05:00,45.5,32.8,30.01,WNW,291,2.0,3.0,61,0.00,,,0.00,Wunderground v.1.15,2013-01-03 02:05:00,
2013-01-02 18:15:00,46.1,33.0,30.02,WNW,292,3.0,5.0,60,0.00,,,0.00,Wunderground v.1.15,2013-01-03 02:15:00,
2013-01-02 18:25:00,46.7,32.3,30.02,WNW,299,2.0,5.0,57,0.00,,,0.00,Wunderground v.1.15,2013-01-03 02:25:00,
2013-01-02 18:35:00,47.3,31.5,30.02,NNW,343,3.0,6.0,54,0.00,,,0.00,Wunderground v.1.15,2013-01-03 02:35:00,
2013-01-02 18:45:00,46.2,31.4,30.02,NNW,340,2.0,8.0,56,0.00,,,0.00,Wunderground v.1.15,2013-01-03 02:45:00,
2013-01-02 18:55:00,45.1,31.6,30.03,NNW,336,2.0,5.0,59,0.00,,,0.00,Wunderground v.1.15,2013-01-03 02:55:00,
2013-01-02 19:05:00,44.8,32.6,30.03,NNW,332,3.0,8.0,62,0.00,,,0.00,Wunderground v.1.15,2013-01-03 03:05:00,
2013-01-02 19:10:00,44.1,33.1,30.03,NNW,332,2.0,2.0,65,0.00,,,0.00,Wunderground v.1.15,2013-01-03 03:10:00,
2013-01-02 19:20:00,43.1,31.0,30.03,NNW,332,1.0,1.0,62,0.00,,,0.00,Wunderground v.1.15,2013-01-03 03:20:00,
2013-01-02 19:30:00,43.1,31.4,30.02,NNW,332,1.0,7.0,63,0.00,,,0.00,Wunderground v.1.15,2013-01-03 03:30:00,
2013-01-02 19:40:00,42.5,31.6,30.02,NNW,332,0.0,7.0,65,0.00,,,0.00,Wunderground v.1.15,2013-01-03 03:40:00,
2013-01-02 19:45:00,42.3,31.4,30.02,NNW,332,1.0,7.0,65,0.00,,,0.00,Wunderground v.1.15,2013-01-03 03:45:00,
2013-01-02 19:55:00,42.8,31.5,30.02,NNW,332,0.0,2.0,64,0.00,,,0.00,Wunderground v.1.15,2013-01-03 03:55:00,
2013-01-02 20:00:00,43.5,31.7,30.02,NNW,332,0.0,2.0,63,0.00,,,0.00,Wunderground v.1.15,2013-01-03 04:00:00,
2013-01-02 20:10:00,43.9,31.3,30.02,NNW,332,0.0,2.0,61,0.00,,,0.00,Wunderground v.1.15,2013-01-03 04:10:00,
2013-01-02 20:15:00,43.9,31.3,30.02,NNW,332,0.0,2.0,61,0.00,,,0.00,Wunderground v.1.15,2013-01-03 04:15:00,
2013-01-02 20:25:00,44.2,31.2,30.01,NNW,332,0.0,2.0,60,0.00,,,0.00,Wunderground v.1.15,2013-01-03 04:25:00,
2013-01-02 20:30:00,44.1,30.3,30.01,NNW,332,0.0,2.0,58,0.00,,,0.00,Wunderground v.1.15,2013-01-03 04:30:00,
2013-01-02 20:40:00,44.6,29.9,30.01,NNW,332,0.0,2.0,56,0.00,,,0.00,Wunderground v.1.15,2013-01-03 04:40:00,
2013-01-02 20:50:00,44.3,29.6,30.01,NNW,332,0.0,0.0,56,0.00,,,0.00,Wunderground v.1.15,2013-01-03 04:50:00,
2013-01-02 21:05:00,44.6,29.0,30.02,NNW,332,0.0,0.0,54,0.00,,,0.00,Wunderground v.1.15,2013-01-03 05:05:00,
2013-01-02 21:10:00,44.3,28.7,30.02,NNW,332,0.0,0.0,54,0.00,,,0.00,Wunderground v.1.15,2013-01-03 05:10:00,
2013-01-02 21:15:00,44.2,29.0,30.02,NNW,332,0.0,0.0,55,0.00,,,0.00,Wunderground v.1.15,2013-01-03 05:15:00,
2013-01-02 21:20:00,44.1,27.1,30.02,NNW,332,0.0,1.0,51,0.00,,,0.00,Wunderground v.1.15,2013-01-03 05:20:00,
2013-01-02 21:30:00,44.2,26.7,30.01,NNW,332,0.0,0.0,50,0.00,,,0.00,Wunderground v.1.15,2013-01-03 05:30:00,
2013-01-02 21:35:00,44.3,26.8,30.01,NNW,332,0.0,0.0,50,0.00,,,0.00,Wunderground v.1.15,2013-01-03 05:35:00,
2013-01-02 21:40:00,44.9,27.8,30.01,NNW,332,0.0,1.0,51,0.00,,,0.00,Wunderground v.1.15,2013-01-03 05:40:00,
2013-01-02 21:50:00,45.2,29.1,30.01,NNW,332,0.0,1.0,53,0.00,,,0.00,Wunderground v.1.15,2013-01-03 05:50:00,
2013-01-02 22:00:00,45.4,29.3,30.02,NNW,332,0.0,1.0,53,0.00,,,0.00,Wunderground v.1.15,2013-01-03 06:00:00,
2013-01-02 22:10:00,45.5,30.3,30.01,NNW,332,0.0,1.0,55,0.00,,,0.00,Wunderground v.1.15,2013-01-03 06:10:00,
2013-01-02 22:20:00,45.7,29.5,30.01,NNW,332,0.0,2.0,53,0.00,,,0.00,Wunderground v.1.15,2013-01-03 06:20:00,
2013-01-02 22:25:00,45.5,28.9,30.01,NNW,332,0.0,2.0,52,0.00,,,0.00,Wunderground v.1.15,2013-01-03 06:25:00,
2013-01-02 22:35:00,45.5,29.8,30.01,NNW,332,0.0,2.0,54,0.00,,,0.00,Wunderground v.1.15,2013-01-03 06:35:00,
2013-01-02 22:40:00,45.2,27.6,30.02,NNW,332,0.0,2.0,50,0.00,,,0.00,Wunderground v.1.15,2013-01-03 06:40:00,
2013-01-02 22:50:00,45.4,28.3,30.02,NNW,332,0.0,0.0,51,0.00,,,0.00,Wunderground v.1.15,2013-01-03 06:50:00,
2013-01-02 23:00:00,45.4,27.3,30.01,NNW,332,0.0,0.0,49,0.00,,,0.00,Wunderground v.1.15,2013-01-03 07:00:00,
2013-01-02 23:10:00,45.4,26.8,30.01,NNW,332,0.0,0.0,48,0.00,,,0.00,Wunderground v.1.15,2013-01-03 07:10:00,
2013-01-02 23:20:00,45.4,28.3,30.01,NNW,332,0.0,1.0,51,0.00,,,0.00,Wunderground v.1.15,2013-01-03 07:20:00,
2013-01-02 23:30:00,45.1,28.0,30.01,NNW,332,0.0,1.0,51,0.00,,,0.00,Wunderground v.1.15,2013-01-03 07:30:00,
2013-01-02 23:40:00,44.5,27.0,30.00,NNW,332,0.0,1.0,50,0.00,,,0.00,Wunderground v.1.15,2013-01-03 07:40:00,
2013-01-02 23:50:00,44.8,27.3,30.00,NNW,332,0.0,1.0,50,0.00,,,0.00,Wunderground v.1.15,2013-01-03 07:50:00,
2013-01-02 23:55:00,44.8,27.3,30.00,NNW,332,0.0,1.0,50,0.00,,,0.00,Wunderground v.1.15,2013-01-03 07:55:00,